Погода в Рауне

Латвия     57°19′58″N   25°36′17″E
темп.,
°C
ветер,
м/с
пор.,
м/с
влажн.,
%
обл.,
%
осадки,
мм/ч
давл.,
гПа
погр.,
м
5 марта, пт
пт523:00−3зсз397923 0.0 1010653
02:00−4зсз597856 0.1 1011934
05:00−4ссз61086100 0.5 1012951
08:00−5ссз495775 0.6 1013977
11:00−2ссз48410 0.0 10151641
14:00−1сз473819 0.0 10152072
17:00−2ссз2362100 0.1 1016807
20:00−4св3678100 0.4 1018754
6 марта, сб
сб623:00−5с266943 0.0 1020332
02:00−6зсз257122 0.0 1022190
05:00−7зсз26800 0.0 1022192
08:00−6з27800 0.0 1022369
11:00−2зюз585837 0.0 10211105
14:000зюз6125264 0.0 10171505
17:00+1зюз71551100 0.0 10141486
20:00−1зюз81757100 0.0 10101318
7 марта, вс
вс723:00−1зюз81593100 0.6 10051215
02:00−2сз81295100 4.8 1003991
05:00−5сз61459100 0.7 10041668
08:00−5з5125666 0.7 10051368
11:00−2зсз8135395 0.3 10042079
14:00−2з8155497 0.8 10022160
17:00−3зсз81565100 0.5 10002033
20:00−6сз6137390 0.6 10021059
8 марта, пн
пн823:00−6сз51084100 0.1 10061042
02:00−7ссз388899 0.2 1008677
05:00−9сз239033 0.0 100993
08:00−7ссз479067 0.3 1011674
11:00−7с4668100 0.2 1013980
14:00−6с5764100 0.3 10161171
17:00−7с4866100 0.1 10171185
20:00−9с397771 0.1 1020607
9 марта, вт
вт923:00−11с27820 0.0 1022225
02:00−11сз22870 0.0 102454
05:00−11зсз12860 0.0 102429
08:00−9з24767 0.0 1025139
11:00−4з35610 0.0 1026674
14:00−2з46510 0.0 10261028
17:00−3з38537 0.0 1025810
20:00−6юз310668 0.0 1026304